[Iaude] MPEC V170: 2023 VN5 [a=2.39,e=0.64,i=3.5,H=27.7]
    mpec at marsden.cfa.harvard.edu 
    mpec at marsden.cfa.harvard.edu
       
    Fri Nov 10 08:36:18 EST 2023
    
    
  
M.P.E.C. 2023-V170                            Issued 2023 November 10, 13:34 UT
     The Minor Planet Electronic Circulars contain information on unusual
         minor planets, routine data on comets and natural satellites,
         and occasional editorial announcements.  They are published
    on behalf of Division F of the International Astronomical Union by the
          Minor Planet Center, Smithsonian Astrophysical Observatory,
                          Cambridge, MA 02138, U.S.A.
			  
             Prepared using the Tamkin Foundation Computer Network
                              MPC at CFA.HARVARD.EDU
            URL https://www.minorplanetcenter.net/    ISSN 1523-6714
                                    2023 VN5                                    
Observations:
     K23V05N 1C2023 11 07.32924 03 12 08.89 +22 31 47.4          18.9 GVEV170703
     K23V05N 1C2023 11 07.33457 03 12 18.02 +22 33 21.5          19.4 GVEV170703
     K23V05N 1C2023 11 07.34533 03 12 36.50 +22 36 27.6          19.6 GVEV170703
     K23V05N* C2023 11 09.00789903 41 27.22 +26 35 51.1          20.5 RoEV170K88
     K23V05N  C2023 11 09.01311603 41 29.64 +26 36 12.0          20.0 RoEV170K88
     K23V05N KC2023 11 09.04246203 41 42.85 +26 38 08.1          20.3 RoEV170K88
     K23V05N KC2023 11 09.04693603 41 44.89 +26 38 25.1          20.3 RoEV170K88
     K23V05N KC2023 11 09.07537003 41 57.82 +26 40 13.6          20.0 RoEV170K88
     K23V05N KC2023 11 09.08033503 42 00.04 +26 40 31.7          20.3 RoEV170K88
     K23V05N KC2023 11 09.08530803 42 02.32 +26 40 50.1          20.1 RoEV170K88
     K23V05N KC2023 11 09.09309803 42 06.60 +26 41 38.6          20.5 GVEV170L01
     K23V05N KC2023 11 09.09478003 42 07.39 +26 41 44.9          20.7 GVEV170L01
     K23V05N KC2023 11 09.09646403 42 08.14 +26 41 50.7          20.6 GVEV170L01
     K23V05N IC2023 11 09.09814903 42 08.89 +26 41 57.0          20.7 GVEV170L01
     K23V05N IC2023 11 09.10109903 42 10.15 +26 42 07.5          20.5 GVEV170L01
     K23V05N 1C2023 11 09.10325 03 42 12.77 +26 41 50.4          20.5 VXEV170033
     K23V05N 1C2023 11 09.10418 03 42 13.17 +26 41 54.3          20.3 VXEV170033
     K23V05N 1C2023 11 09.10510 03 42 13.60 +26 41 57.6          20.8 VXEV170033
     K23V05N mC2023 11 09.22001203 43 33.860+26 50 55.70               VEV170I52
     K23V05N mC2023 11 09.23338303 43 39.050+26 51 52.40         21.29GVEV170I52
     K23V05N mC2023 11 09.23400403 43 39.340+26 51 54.40         20.43GVEV170I52
     K23V05N KC2023 11 10.23954903 49 59.360+27 39 42.00         21.48GVEV170I52
     K23V05N KC2023 11 10.24295103 50 00.080+27 39 50.90         20.93GVEV170I52
     K23V05N KC2023 11 10.24635803 50 00.840+27 39 59.00         20.70GVEV170I52
     K23V05N KC2023 11 10.24975003 50 01.560+27 40 07.60         21.35GVEV170I52
Observer details:
033 Karl Schwarzschild Observatory, Tautenburg.  Observers S. Melnikov, C.
    Hogner, F. Ludwig, M. Hartmann, B. Stecklum.  Measurer B. Stecklum.
    1.34-m f/3 Schmidt + CCD.
703 Catalina Sky Survey.  Observer G. J. Leonard.  Measurers B. Gray, D.
    Rankin, F. C. Shelly.  0.68-m Schmidt + 10K CCD.
I52 Steward Observatory, Mt. Lemmon Station.  Observer H. Groeller.  Measurers
    E. C. Beshore, D. Fay, J. B. Fazekas, D. C. Fuls, A. R. Gibbs, A. D.
    Grauer, H. Groeller, J. K. Hogan, R. A. Kowalski, S. M. Larson, G. J.
    Leonard, D. Rankin, R. L. Seaman, F. C. Shelly, K. W. Wierzchos.  1.0-m
    prime focus + CCD.
K88 GINOP-KHK, Piszkesteto.  Observer K. Sarneczky.  0.60-m Schmidt + CCD.
L01 Visnjan Observatory, Tican.  Observer K. Korlevic.  1.0-m f/2.9 reflector
    + CCD.
Orbital elements:
2023 VN5                                                 Earth MOID = 0.0012 AU
Epoch 2023 Sept. 13.0 TT = JDT 2460200.5                Veres                   
M 354.67639              (2000.0)            P               Q                  
n   0.26730184     Peri.  310.85079     +0.99413152     +0.09986119             
a   2.3867197      Node    43.46544     -0.07175013     +0.89644192             
e   0.6378029      Incl.    3.46663     -0.08095947     +0.43176340             
P   3.69           H   27.76          G   0.15           U   8                  
Residuals in seconds of arc
231107 703  0.9+  0.0     231109 K88  0.4+  0.3-    231109 I52  0.2-  0.5-
231107 703  0.9-  0.0     231109 L01  0.2-  0.4+    231109 I52  0.0   0.5+
231107 703 (2.0-  1.4-)   231109 L01  0.4+  0.5+    231109 I52  0.7+  0.0
231109 K88  1.1-  0.8+    231109 L01  0.4+  0.2+    231110 I52  0.1-  0.2-
231109 K88  0.3-  0.3+    231109 L01  0.3+  0.4+    231110 I52  0.2-  0.2+
231109 K88  0.6-  0.5-    231109 L01  0.5-  0.2+    231110 I52  0.2+  0.2-
231109 K88  0.3-  0.9-    231109 033  0.4+  0.3-    231110 I52  0.1+  0.0
231109 K88  0.6+  0.2-    231109 033  0.1+  0.3+
231109 K88  0.2+  0.5-    231109 033  0.3+  0.2+
Ephemeris:
2023 VN5                 a,e,i = 2.39, 0.64, 3                   q = 0.8645
Date    TT    R. A. (2000) Decl.     Delta      r    Elong.  Phase     V
2023 10 11    16 03 39.4 -29 30 59   0.2100  0.8727    48.2   121.5    29.0
...
2023 10 26    16 21 05.8 -31 08 05   0.08562 0.9281    37.8   139.0    29.0
...
2023 11 03    16 55 58.8 -34 12 57   0.02161 0.9753    38.1   141.1    26.4
...
2023 11 09    03 41 26.7 +26 37 14   0.02683 1.0167   165.1    14.5    20.8
2023 11 10    03 48 35.4 +27 31 02   0.03476 1.0240   164.2    15.2    21.4
2023 11 11    03 53 05.3 +28 03 40   0.04273 1.0314   164.0    15.3    21.8
...
2023 11 17    04 03 00.4 +29 09 54   0.09133 1.0780   166.7    12.2    23.5
...
2023 11 25    04 05 50.2 +29 18 21   0.1589  1.1445   171.2     7.6    24.6
...
2023 12 10    04 08 00.8 +28 50 36   0.2999  1.2778   165.9    10.8    26.4
M. P. C. Staff               (C) Copyright 2023 MPC           M.P.E.C. 2023-V170
    
    
More information about the Iaude
mailing list